Weather History for Dayton Wright, OH

Change the Weather History Date:

Sunday, June 2, 2013

  Actual Average (KFFO) Record (KFFO)
Temperature  
Mean Temperature 70 °F -  
Max Temperature 75 °F 72 °F 88 °F (2007)
Min Temperature 64 °F 53 °F 42 °F (2003)
Cooling Degree Days 4    
Growing Degree Days 20 (Base 50)    
Moisture  
Dew Point 60 °F    
Average Humidity 72    
Maximum Humidity 88    
Minimum Humidity 51    
Precipitation  
Precipitation 0.00 in - - ()
Sea Level Pressure  
Sea Level Pressure 29.87 in    
Wind  
Wind Speed 11 mph (West)    
Max Wind Speed 16 mph    
Max Gust Speed 22 mph    
Visibility 10 miles    
Events      
Averages and records for this station are not official NWS values.
T = Trace of Precipitation, MM = Missing Value Source: NWS Daily Summary

Daily Weather History Graph

Daily Weather History Graph

Search for Another Location

Airport:

Trip Planner

Search our weather history database for the weather conditions in past years. The results will help you decide how hot, cold, wet, or windy it might be!

Date:

Astronomy

Jun. 02, 2013 Rise Set
Actual Time 6:10 AM EDT 8:59 PM EDT
Civil Twilight 5:38 AM EDT 9:31 PM EDT
Nautical Twilight 4:58 AM EDT 10:11 PM EDT
Astronomical Twilight 4:13 AM EDT 10:57 PM EDT
Moon 2:36 AM EDT (6/2) 3:30 PM EDT (6/2)
Length of Visible Light 15h 52m
Length of Day
14h 48m
Waning Crescent, 31% of the Moon is Illuminated
Jun 2
Waning Crescent
Jun 8
New
Jun 16
First Quarter
Jun 23
Full
Jun 30
Last Quarter

Hourly Weather History & Observations

Time (EDT) Temp. Dew Point Humidity Pressure Visibility Wind Dir Wind Speed Gust Speed Precip Events Conditions
12:34 AM 71.6 °F 66.2 °F 83% 29.83 in 10.0 mi SW 13.8 mph 21.9 mph N/A   Mostly Cloudy
12:53 AM 70.0 °F 64.9 °F 84% 29.81 in 10.0 mi SW 16.1 mph 21.9 mph N/A   Mostly Cloudy
1:53 AM 69.1 °F 64.0 °F 84% 29.81 in 10.0 mi WSW 13.8 mph 20.7 mph N/A   Overcast
2:11 AM 69.8 °F 64.4 °F 83% 29.83 in 10.0 mi WSW 12.7 mph - N/A   Overcast
2:53 AM 68.0 °F 63.0 °F 84% 29.81 in 10.0 mi SW 10.4 mph - N/A   Mostly Cloudy
3:53 AM 68.0 °F 63.0 °F 84% 29.81 in 10.0 mi SW 11.5 mph - N/A   Overcast
4:53 AM 66.9 °F 62.1 °F 84% 29.82 in 10.0 mi SW 10.4 mph - N/A   Overcast
5:53 AM 66.0 °F 62.1 °F 87% 29.83 in 10.0 mi WSW 9.2 mph - N/A   Mostly Cloudy
6:04 AM 66.2 °F 62.6 °F 88% 29.85 in 10.0 mi SW 8.1 mph - N/A   Partly Cloudy
6:53 AM 66.0 °F 61.0 °F 84% 29.84 in 10.0 mi WSW 9.2 mph - N/A   Mostly Cloudy
7:01 AM 66.2 °F 60.8 °F 83% 29.87 in 10.0 mi WSW 8.1 mph - N/A   Scattered Clouds
7:53 AM 66.9 °F 61.0 °F 81% 29.86 in 10.0 mi WSW 9.2 mph - N/A   Clear
8:20 AM 66.2 °F 60.8 °F 83% 29.89 in 10.0 mi WSW 10.4 mph 18.4 mph N/A   Mostly Cloudy
8:53 AM 66.9 °F 59.0 °F 76% 29.87 in 10.0 mi West 8.1 mph - N/A   Overcast
9:15 AM 68.0 °F 59.0 °F 73% 29.89 in 10.0 mi West 10.4 mph 17.3 mph N/A   Mostly Cloudy
9:53 AM 69.1 °F 57.9 °F 68% 29.88 in 10.0 mi WSW 10.4 mph 17.3 mph N/A   Mostly Cloudy
10:53 AM 71.1 °F 57.9 °F 63% 29.88 in 10.0 mi WSW 10.4 mph - N/A   Scattered Clouds
11:53 AM 73.0 °F 57.0 °F 57% 29.89 in 10.0 mi WSW 9.2 mph - N/A   Scattered Clouds
12:53 PM 73.9 °F 57.0 °F 55% 29.89 in 10.0 mi West 5.8 mph 18.4 mph N/A   Mostly Cloudy
1:53 PM 75.0 °F 57.0 °F 53% 29.88 in 10.0 mi WNW 9.2 mph - N/A   Mostly Cloudy
2:53 PM 75.0 °F 57.0 °F 53% 29.87 in 10.0 mi WSW 8.1 mph - N/A   Overcast
3:53 PM 75.0 °F 55.9 °F 51% 29.87 in 10.0 mi WSW 8.1 mph - N/A   Overcast
4:53 PM 73.9 °F 57.9 °F 57% 29.86 in 10.0 mi WNW 12.7 mph - N/A   Overcast
5:53 PM 73.9 °F 57.9 °F 57% 29.86 in 10.0 mi WNW 9.2 mph - N/A   Overcast
6:53 PM 73.0 °F 57.9 °F 59% 29.86 in 10.0 mi WNW 6.9 mph - N/A   Overcast
7:53 PM 71.1 °F 57.0 °F 61% 29.87 in 10.0 mi NW 8.1 mph - N/A   Mostly Cloudy
8:53 PM 70.0 °F 57.0 °F 63% 29.88 in 10.0 mi WNW 3.5 mph - N/A   Overcast
9:53 PM 66.9 °F 57.9 °F 73% 29.91 in 10.0 mi North 13.8 mph - N/A   Mostly Cloudy
10:53 PM 66.0 °F 57.9 °F 75% 29.92 in 10.0 mi North 9.2 mph 17.3 mph N/A   Overcast
11:14 PM 64.4 °F 57.2 °F 77% 29.95 in 10.0 mi North 8.1 mph - N/A   Overcast
11:53 PM 64.0 °F 55.0 °F 73% 29.94 in 10.0 mi NNW 13.8 mph 18.4 mph N/A   Overcast